• In Slovakia
  • List of Countries
  • For 7 days
  • Water Temperature
  • Satellite Maps
  • Weather Map
  • Weather Widgets
  • user-avatar
    Login

    Hourly Weather Lubango

    Today, 20 September, Thursday

    Time Temperature Precipitation Wind Pressure Humidity
    00:00 +16°C° 0 mm 1 mps 608 mmHg 49%
    01:00 +15°C° 0 mm 1 mps 608 mmHg 52%
    02:00 +15°C° 0 mm 1 mps 608 mmHg 50%
    03:00 +15°C° 0 mm 1 mps 607 mmHg 48%
    04:00 +15°C° 0 mm 1 mps 607 mmHg 46%
    05:00 +16°C° 0 mm 1 mps 608 mmHg 40%
    06:00 +18°C° 0 mm 1 mps 608 mmHg 34%
    07:00 +19°C° 0 mm 2 mps 609 mmHg 26%
    08:00 +23°C° 0 mm 2 mps 610 mmHg 21%
    09:00 +26°C° 0 mm 2 mps 612 mmHg 15%
    10:00 +29°C° 0 mm 2 mps 613 mmHg 10%
    11:00 +30°C° 0 mm 2 mps 613 mmHg 9%
    12:00 +33°C° 0 mm 3 mps 612 mmHg 9%
    13:00 +34°C° 0 mm 3 mps 612 mmHg 9%
    14:00 +33°C° 0 mm 3 mps 611 mmHg 11%
    15:00 +31°C° 0 mm 3 mps 611 mmHg 14%
    16:00 +30°C° 0 mm 3 mps 610 mmHg 16%
    17:00 +27°C° 0 mm 3 mps 609 mmHg 26%
    18:00 +24°C° 0 mm 3 mps 609 mmHg 37%
    19:00 +20°C° 0 mm 2 mps 608 mmHg 47%
    20:00 +18°C° 0 mm 2 mps 608 mmHg 51%
    21:00 +17°C° 0 mm 2 mps 608 mmHg 56%
    22:00 +16°C° 0 mm 1 mps 608 mmHg 61%
    23:00 +16°C° 0 mm 1 mps 608 mmHg 60%

    Tomorrow, 21 September, Friday

    Time Temperature Precipitation Wind Pressure Humidity
    00:00 +16°C° 0 mm 1 mps 608 mmHg 60%
    01:00 +16°C° 0 mm 1 mps 608 mmHg 60%
    02:00 +16°C° 0 mm 1 mps 608 mmHg 60%
    03:00 +15°C° 0 mm 1 mps 607 mmHg 60%
    04:00 +15°C° 0 mm 1 mps 607 mmHg 61%
    05:00 +15°C° 0 mm 1 mps 608 mmHg 58%
    06:00 +15°C° 0 mm 0 mps 608 mmHg 55%
    07:00 +15°C° 0 mm 0 mps 608 mmHg 52%
    08:00 +20°C° 0 mm 1 mps 610 mmHg 41%
    09:00 +24°C° 0 mm 1 mps 611 mmHg 31%
    10:00 +27°C° 0 mm 2 mps 612 mmHg 20%
    11:00 +29°C° 0 mm 2 mps 612 mmHg 18%
    12:00 +30°C° 0 mm 2 mps 612 mmHg 16%
    13:00 +32°C° 0 mm 2 mps 612 mmHg 14%
    14:00 +31°C° 0 mm 2 mps 612 mmHg 15%
    15:00 +30°C° 0 mm 3 mps 611 mmHg 17%
    16:00 +30°C° 0 mm 3 mps 610 mmHg 19%
    17:00 +27°C° 0 mm 3 mps 610 mmHg 27%
    18:00 +24°C° 0 mm 3 mps 609 mmHg 36%
    19:00 +20°C° 0 mm 2 mps 608 mmHg 45%
    20:00 +19°C° 0 mm 2 mps 608 mmHg 50%
    21:00 +19°C° 0 mm 1 mps 609 mmHg 55%
    22:00 +18°C° 0 mm 1 mps 609 mmHg 60%
    23:00 +16°C° 0 mm 1 mps 608 mmHg 62%

    Day after tomorrow, 22 September, Saturday

    Time Temperature Precipitation Wind Pressure Humidity
    00:00 +16°C° 0 mm 1 mps 608 mmHg 63%
    01:00 +16°C° 0 mm 1 mps 608 mmHg 64%
    02:00 +15°C° 0 mm 1 mps 607 mmHg 65%
    03:00 +15°C° 0 mm 1 mps 607 mmHg 65%
    04:00 +14°C° 0 mm 1 mps 607 mmHg 66%
    05:00 +16°C° 0 mm 1 mps 607 mmHg 60%
    06:00 +18°C° 0 mm 1 mps 608 mmHg 54%
    07:00 +19°C° 0 mm 1 mps 609 mmHg 48%
    08:00 +22°C° 0 mm 1 mps 610 mmHg 38%
    09:00 +25°C° 0 mm 2 mps 611 mmHg 28%
    10:00 +28°C° 0 mm 2 mps 613 mmHg 18%
    11:00 +29°C° 0 mm 2 mps 612 mmHg 17%
    12:00 +31°C° 0 mm 2 mps 612 mmHg 16%
    13:00 +33°C° 0 mm 3 mps 612 mmHg 15%
    14:00 +31°C° 0 mm 3 mps 611 mmHg 17%
    15:00 +30°C° 0 mm 4 mps 611 mmHg 20%
    16:00 +29°C° 0 mm 4 mps 610 mmHg 22%
    17:00 +26°C° 0 mm 4 mps 610 mmHg 31%
    18:00 +22°C° 0 mm 3 mps 609 mmHg 39%
    19:00 +20°C° 0 mm 2 mps 609 mmHg 48%
    20:00 +18°C° 0 mm 2 mps 609 mmHg 52%
    21:00 +18°C° 0 mm 1 mps 609 mmHg 57%
    22:00 +16°C° 0 mm 1 mps 609 mmHg 61%
    23:00 +16°C° 0 mm 1 mps 609 mmHg 63%

    23 September, Sunday

    Time Temperature Precipitation Wind Pressure Humidity
    00:00 +15°C° 0 mm 1 mps 608 mmHg 64%
    01:00 +14°C° 0 mm 0 mps 608 mmHg 65%
    02:00 +14°C° 0 mm 0 mps 608 mmHg 63%
    03:00 +15°C° 0 mm 1 mps 607 mmHg 61%
    04:00 +15°C° 0 mm 1 mps 607 mmHg 59%
    05:00 +16°C° 0 mm 1 mps 608 mmHg 53%
    06:00 +18°C° 0 mm 1 mps 609 mmHg 46%
    07:00 +19°C° 0 mm 1 mps 609 mmHg 40%
    08:00 +21°C° 0 mm 2 mps 611 mmHg 33%
    09:00 +25°C° 0 mm 2 mps 612 mmHg 25%
    10:00 +28°C° 0 mm 3 mps 613 mmHg 18%
    11:00 +29°C° 0 mm 3 mps 613 mmHg 16%
    12:00 +30°C° 0 mm 3 mps 612 mmHg 15%
    13:00 +33°C° 0 mm 3 mps 612 mmHg 14%
    14:00 +32°C° 0 mm 4 mps 611 mmHg 16%
    15:00 +30°C° 0 mm 4 mps 611 mmHg 18%
    16:00 +29°C° 0 mm 5 mps 610 mmHg 20%
    17:00 +26°C° 0 mm 4 mps 610 mmHg 30%
    18:00 +22°C° 0 mm 3 mps 609 mmHg 39%
    19:00 +19°C° 0 mm 2 mps 608 mmHg 49%
    20:00 +18°C° 0 mm 2 mps 608 mmHg 54%
    21:00 +16°C° 0 mm 1 mps 608 mmHg 60%
    22:00 +15°C° 0 mm 1 mps 608 mmHg 66%
    23:00 +15°C° 0 mm 1 mps 608 mmHg 67%

    24 September, Monday

    Time Temperature Precipitation Wind Pressure Humidity
    00:00 +14°C° 0 mm 1 mps 608 mmHg 69%
    01:00 +14°C° 0 mm 1 mps 607 mmHg 70%
    02:00 +13°C° 0 mm 1 mps 607 mmHg 70%
    03:00 +13°C° 0 mm 1 mps 607 mmHg 71%
    04:00 +12°C° 0 mm 0 mps 607 mmHg 71%
    05:00 +13°C° 0 mm 0 mps 607 mmHg 65%
    06:00 +14°C° 0 mm 0 mps 608 mmHg 59%
    07:00 +15°C° 0 mm 0 mps 609 mmHg 53%
    08:00 +20°C° 0 mm 1 mps 610 mmHg 43%
    09:00 +23°C° 0 mm 2 mps 612 mmHg 32%
    10:00 +27°C° 0 mm 2 mps 613 mmHg 21%
    11:00 +28°C° 0 mm 3 mps 612 mmHg 20%
    12:00 +29°C° 0 mm 3 mps 612 mmHg 18%
    13:00 +30°C° 0 mm 3 mps 612 mmHg 17%
    14:00 +29°C° 0 mm 4 mps 611 mmHg 20%
    15:00 +28°C° 0 mm 4 mps 610 mmHg 22%
    16:00 +27°C° 0 mm 5 mps 610 mmHg 25%
    17:00 +23°C° 0 mm 4 mps 609 mmHg 35%
    18:00 +21°C° 0 mm 3 mps 609 mmHg 45%
    19:00 +18°C° 0 mm 2 mps 608 mmHg 56%
    20:00 +17°C° 0 mm 2 mps 608 mmHg 61%
    21:00 +16°C° 0 mm 2 mps 609 mmHg 66%
    22:00 +14°C° 0 mm 1 mps 609 mmHg 71%
    23:00 +14°C° 0 mm 1 mps 608 mmHg 73%

    25 September, Tuesday

    Time Temperature Precipitation Wind Pressure Humidity
    00:00 +13°C° 0 mm 1 mps 608 mmHg 74%
    01:00 +13°C° 0 mm 1 mps 607 mmHg 76%
    02:00 +12°C° 0 mm 0 mps 607 mmHg 76%
    03:00 +11°C° 0 mm 0 mps 607 mmHg 76%
    04:00 +11°C° 0 mm 0 mps 607 mmHg 75%
    05:00 +12°C° 0 mm 0 mps 607 mmHg 69%
    06:00 +13°C° 0 mm 0 mps 608 mmHg 62%
    07:00 +14°C° 0 mm 0 mps 609 mmHg 56%
    08:00 +19°C° 0 mm 1 mps 610 mmHg 45%
    09:00 +23°C° 0 mm 1 mps 612 mmHg 34%
    10:00 +26°C° 0 mm 1 mps 613 mmHg 23%
    11:00 +27°C° 0 mm 2 mps 613 mmHg 21%
    12:00 +29°C° 0 mm 2 mps 612 mmHg 18%
    13:00 +30°C° 0 mm 3 mps 612 mmHg 16%
    14:00 +29°C° 0 mm 3 mps 612 mmHg 18%
    15:00 +28°C° 0 mm 4 mps 611 mmHg 21%
    16:00 +27°C° 0 mm 4 mps 610 mmHg 23%
    17:00 +24°C° 0 mm 3 mps 610 mmHg 31%
    18:00 +21°C° 0 mm 3 mps 609 mmHg 40%
    19:00 +18°C° 0 mm 2 mps 609 mmHg 49%
    20:00 +17°C° 0 mm 2 mps 609 mmHg 52%
    21:00 +16°C° 0 mm 1 mps 609 mmHg 56%
    22:00 +15°C° 0 mm 1 mps 609 mmHg 59%
    23:00 +15°C° 0 mm 1 mps 609 mmHg 59%
    Show more